Time,TemperatureF,DewpointF,PressureIn,WindDirection,WindDirectionDegrees,WindSpeedMPH,WindSpeedGustMPH,Humidity,HourlyPrecipIn,Conditions,Clouds,dailyrainin,SoftwareType,DateUTC
2013-07-28 00:01:00,81.9,67.1,30.06,SSW,202,0.0,0.0,61,0.00,,---,0.00,VWS V14.01,2013-07-28 04:01:00,
2013-07-28 00:03:00,81.9,67.1,30.06,West,270,0.0,0.0,61,0.00,,---,0.00,VWS V14.01,2013-07-28 04:03:00,
2013-07-28 00:08:00,81.7,66.9,30.06,NNW,338,0.0,0.0,61,0.00,,---,0.00,VWS V14.01,2013-07-28 04:08:00,
2013-07-28 00:11:00,81.7,66.9,30.06,SW,225,0.0,0.0,61,0.00,,---,0.00,VWS V14.01,2013-07-28 04:11:00,
2013-07-28 00:16:00,81.3,67.1,30.06,SE,135,0.0,0.0,62,0.00,,---,0.00,VWS V14.01,2013-07-28 04:16:00,
2013-07-28 00:21:00,81.3,67.1,30.09,ESE,112,0.0,0.0,62,0.00,,---,0.00,VWS V14.01,2013-07-28 04:21:00,
2013-07-28 00:26:00,81.1,67.4,30.09,ESE,112,0.0,0.0,63,0.00,,---,0.00,VWS V14.01,2013-07-28 04:26:00,
2013-07-28 00:31:00,81.0,67.2,30.09,ESE,112,0.0,0.0,63,0.00,,---,0.00,VWS V14.01,2013-07-28 04:31:00,
2013-07-28 00:37:00,81.0,67.2,30.09,ESE,112,0.0,0.0,63,0.00,,---,0.00,VWS V14.01,2013-07-28 04:37:00,
2013-07-28 00:42:00,80.8,67.5,30.09,SE,135,0.0,0.0,64,0.00,,---,0.00,VWS V14.01,2013-07-28 04:42:00,
2013-07-28 00:47:00,80.8,67.5,30.09,SE,135,0.0,0.0,64,0.00,,---,0.00,VWS V14.01,2013-07-28 04:47:00,
2013-07-28 00:52:00,80.6,67.3,30.06,East,90,0.0,0.0,64,0.00,,---,0.00,VWS V14.01,2013-07-28 04:52:00,
2013-07-28 00:57:00,80.4,67.6,30.06,ESE,112,0.0,0.0,65,0.00,,---,0.00,VWS V14.01,2013-07-28 04:57:00,
2013-07-28 01:03:00,80.2,67.9,30.06,ESE,112,0.0,0.0,66,0.00,,---,0.00,VWS V14.01,2013-07-28 05:03:00,
2013-07-28 01:09:00,80.2,67.9,30.06,East,90,0.0,0.0,66,0.00,,---,0.00,VWS V14.01,2013-07-28 05:09:00,
2013-07-28 01:14:00,80.1,67.7,30.06,ESE,112,0.0,0.0,66,0.00,,---,0.00,VWS V14.01,2013-07-28 05:14:00,
2013-07-28 01:19:00,80.1,67.7,30.06,SE,135,1.1,1.1,66,0.00,,---,0.00,VWS V14.01,2013-07-28 05:19:00,
2013-07-28 01:25:00,80.1,68.1,30.06,SE,135,0.0,0.0,67,0.00,,---,0.00,VWS V14.01,2013-07-28 05:25:00,
2013-07-28 01:30:00,79.9,67.9,30.06,ESE,112,0.0,0.0,67,0.00,,---,0.00,VWS V14.01,2013-07-28 05:30:00,
2013-07-28 01:35:00,79.9,67.9,30.06,ENE,68,0.0,0.0,67,0.00,,---,0.00,VWS V14.01,2013-07-28 05:35:00,
2013-07-28 01:41:00,79.7,68.2,30.06,East,90,0.0,0.0,68,0.00,,---,0.00,VWS V14.01,2013-07-28 05:41:00,
2013-07-28 01:47:00,79.5,68.0,30.06,East,90,0.0,0.0,68,0.00,,---,0.00,VWS V14.01,2013-07-28 05:47:00,
2013-07-28 01:52:00,79.5,68.0,30.06,ENE,68,0.0,0.0,68,0.00,,---,0.00,VWS V14.01,2013-07-28 05:52:00,
2013-07-28 01:57:00,79.5,68.0,30.06,ENE,68,0.0,0.0,68,0.00,,---,0.00,VWS V14.01,2013-07-28 05:57:00,
2013-07-28 02:02:00,79.3,67.9,30.06,ESE,112,0.0,0.0,68,0.00,,---,0.00,VWS V14.01,2013-07-28 06:02:00,
2013-07-28 02:07:00,79.3,68.3,30.06,ESE,112,0.0,0.0,69,0.00,,---,0.00,VWS V14.01,2013-07-28 06:07:00,
2013-07-28 02:13:00,79.2,68.1,30.06,ESE,112,0.0,0.0,69,0.00,,---,0.00,VWS V14.01,2013-07-28 06:13:00,
2013-07-28 02:18:00,79.2,68.1,30.06,ESE,112,0.0,0.0,69,0.00,,---,0.00,VWS V14.01,2013-07-28 06:18:00,
2013-07-28 02:23:00,79.0,67.9,30.06,East,90,0.0,0.0,69,0.00,,---,0.00,VWS V14.01,2013-07-28 06:23:00,
2013-07-28 02:29:00,79.0,67.9,30.06,East,90,0.0,0.0,69,0.00,,---,0.00,VWS V14.01,2013-07-28 06:29:00,
2013-07-28 02:34:00,78.8,68.2,30.06,East,90,0.0,0.0,70,0.00,,---,0.00,VWS V14.01,2013-07-28 06:34:00,
2013-07-28 02:40:00,78.6,68.0,30.06,East,90,0.0,0.0,70,0.00,,---,0.00,VWS V14.01,2013-07-28 06:40:00,
2013-07-28 02:45:00,78.6,68.4,30.06,East,90,0.0,0.0,71,0.00,,---,0.00,VWS V14.01,2013-07-28 06:45:00,
2013-07-28 02:50:00,78.4,68.3,30.06,East,90,0.0,0.0,71,0.00,,---,0.00,VWS V14.01,2013-07-28 06:50:00,
2013-07-28 02:56:00,78.4,68.7,30.03,East,90,0.0,0.0,72,0.00,,---,0.00,VWS V14.01,2013-07-28 06:56:00,
2013-07-28 03:01:00,78.3,68.5,30.03,East,90,0.0,0.0,72,0.00,,---,0.00,VWS V14.01,2013-07-28 07:01:00,
2013-07-28 03:07:00,78.1,68.7,30.06,NNW,338,0.0,0.0,73,0.00,,---,0.00,VWS V14.01,2013-07-28 07:07:00,
2013-07-28 03:12:00,78.1,68.7,30.06,West,270,0.0,0.0,73,0.00,,---,0.00,VWS V14.01,2013-07-28 07:12:00,
2013-07-28 03:17:00,78.1,68.7,30.06,East,90,0.0,0.0,73,0.00,,---,0.00,VWS V14.01,2013-07-28 07:17:00,
2013-07-28 03:22:00,77.9,68.6,30.03,East,90,0.0,0.0,73,0.00,,---,0.00,VWS V14.01,2013-07-28 07:22:00,
2013-07-28 03:27:00,77.9,68.9,30.03,North,0,0.0,0.0,74,0.00,,---,0.00,VWS V14.01,2013-07-28 07:27:00,
2013-07-28 03:32:00,77.9,68.9,30.03,WNW,292,0.0,0.0,74,0.00,,---,0.00,VWS V14.01,2013-07-28 07:32:00,
2013-07-28 03:37:00,77.9,69.3,30.03,WNW,292,0.0,0.0,75,0.00,,---,0.00,VWS V14.01,2013-07-28 07:37:00,
2013-07-28 03:44:00,77.9,69.3,30.03,WNW,292,0.0,0.0,75,0.00,,---,0.00,VWS V14.01,2013-07-28 07:44:00,
2013-07-28 03:49:00,77.7,69.2,30.03,East,90,0.0,0.0,75,0.00,,---,0.00,VWS V14.01,2013-07-28 07:49:00,
2013-07-28 03:54:00,77.7,69.2,30.03,East,90,0.0,0.0,75,0.00,,---,0.00,VWS V14.01,2013-07-28 07:54:00,
2013-07-28 04:00:00,77.5,69.0,30.03,East,90,0.0,0.0,75,0.00,,---,0.00,VWS V14.01,2013-07-28 08:00:00,
2013-07-28 04:05:00,77.5,69.0,30.03,East,90,0.0,0.0,75,0.00,,---,0.00,VWS V14.01,2013-07-28 08:05:00,
2013-07-28 04:10:00,77.4,68.8,30.03,East,90,0.0,0.0,75,0.00,,---,0.00,VWS V14.01,2013-07-28 08:10:00,
2013-07-28 04:16:00,77.2,68.7,30.03,SE,135,0.0,0.0,75,0.00,,---,0.00,VWS V14.01,2013-07-28 08:16:00,
2013-07-28 04:22:00,77.2,69.0,30.03,SE,135,0.0,0.0,76,0.00,,---,0.00,VWS V14.01,2013-07-28 08:22:00,
2013-07-28 04:27:00,77.2,69.0,30.03,SE,135,0.0,0.0,76,0.00,,---,0.00,VWS V14.01,2013-07-28 08:27:00,
2013-07-28 04:32:00,77.2,69.0,30.03,SE,135,0.0,0.0,76,0.00,,---,0.00,VWS V14.01,2013-07-28 08:32:00,
2013-07-28 04:38:00,77.2,69.0,30.03,SE,135,0.0,0.0,76,0.00,,---,0.00,VWS V14.01,2013-07-28 08:38:00,
2013-07-28 04:44:00,77.4,69.6,30.03,SE,135,0.0,0.0,77,0.00,,---,0.00,VWS V14.01,2013-07-28 08:44:00,
2013-07-28 04:51:00,77.4,70.0,30.03,SE,135,0.0,0.0,78,0.00,,---,0.00,VWS V14.01,2013-07-28 08:51:00,
2013-07-28 04:56:00,77.4,70.0,30.03,SE,135,0.0,0.0,78,0.00,,---,0.00,VWS V14.01,2013-07-28 08:56:00,
2013-07-28 05:01:00,77.5,70.1,30.03,SE,135,0.0,0.0,78,0.00,,---,0.00,VWS V14.01,2013-07-28 09:01:00,
2013-07-28 05:07:00,77.4,70.0,30.03,SE,135,0.0,0.0,78,0.00,,---,0.00,VWS V14.01,2013-07-28 09:07:00,
2013-07-28 05:12:00,77.4,70.0,30.03,NNW,338,0.0,0.0,78,0.00,,---,0.00,VWS V14.01,2013-07-28 09:12:00,
2013-07-28 05:17:00,77.4,70.0,30.03,NNW,338,0.0,0.0,78,0.00,,---,0.00,VWS V14.01,2013-07-28 09:17:00,
2013-07-28 05:23:00,77.4,70.0,30.03,ESE,112,0.0,0.0,78,0.00,,---,0.00,VWS V14.01,2013-07-28 09:23:00,
2013-07-28 05:28:00,77.4,70.0,30.03,SE,135,0.0,0.0,78,0.00,,---,0.00,VWS V14.01,2013-07-28 09:28:00,
2013-07-28 05:34:00,77.2,69.8,30.03,SE,135,0.0,0.0,78,0.00,,---,0.00,VWS V14.01,2013-07-28 09:34:00,
2013-07-28 05:39:00,77.2,69.8,30.03,SE,135,0.0,0.0,78,0.00,,---,0.00,VWS V14.01,2013-07-28 09:39:00,
2013-07-28 05:44:00,77.2,69.8,30.03,SE,135,0.0,0.0,78,0.00,,---,0.00,VWS V14.01,2013-07-28 09:44:00,
2013-07-28 05:49:00,77.2,69.8,30.03,SE,135,0.0,0.0,78,0.00,,---,0.00,VWS V14.01,2013-07-28 09:49:00,
2013-07-28 05:55:00,77.0,69.6,30.03,SE,135,0.0,0.0,78,0.00,,---,0.00,VWS V14.01,2013-07-28 09:55:00,
2013-07-28 06:01:00,77.0,69.6,30.03,SE,135,0.0,0.0,78,0.00,,---,0.00,VWS V14.01,2013-07-28 10:01:00,
2013-07-28 06:07:00,77.0,69.6,30.06,SE,135,0.0,0.0,78,0.00,,---,0.00,VWS V14.01,2013-07-28 10:07:00,
2013-07-28 06:12:00,76.8,69.4,30.06,SE,135,0.0,0.0,78,0.00,,---,0.00,VWS V14.01,2013-07-28 10:12:00,
2013-07-28 06:17:00,76.8,69.8,30.06,SE,135,0.0,0.0,79,0.00,,---,0.00,VWS V14.01,2013-07-28 10:17:00,
2013-07-28 06:23:00,76.6,69.6,30.06,SE,135,0.0,0.0,79,0.00,,---,0.00,VWS V14.01,2013-07-28 10:23:00,
2013-07-28 06:28:00,76.6,69.6,30.06,SE,135,0.0,0.0,79,0.00,,---,0.00,VWS V14.01,2013-07-28 10:28:00,
2013-07-28 06:33:00,76.6,69.6,30.06,SE,135,0.0,0.0,79,0.00,,---,0.00,VWS V14.01,2013-07-28 10:33:00,
2013-07-28 06:39:00,76.6,69.6,30.06,SE,135,0.0,0.0,79,0.00,,---,0.00,VWS V14.01,2013-07-28 10:39:00,
2013-07-28 06:45:00,76.5,69.5,30.06,SE,135,0.0,0.0,79,0.00,,---,0.00,VWS V14.01,2013-07-28 10:45:00,
2013-07-28 06:50:00,76.5,69.5,30.06,SE,135,0.0,0.0,79,0.00,,---,0.00,VWS V14.01,2013-07-28 10:50:00,
2013-07-28 06:56:00,76.5,69.5,30.06,SE,135,0.0,0.0,79,0.00,,---,0.00,VWS V14.01,2013-07-28 10:56:00,
2013-07-28 07:01:00,76.5,69.5,30.06,SE,135,0.0,0.0,79,0.00,,---,0.00,VWS V14.01,2013-07-28 11:01:00,
2013-07-28 07:06:00,76.5,69.5,30.06,SE,135,0.0,0.0,79,0.00,,---,0.00,VWS V14.01,2013-07-28 11:06:00,
2013-07-28 07:11:00,76.5,69.5,30.06,SE,135,0.0,0.0,79,0.00,,---,0.00,VWS V14.01,2013-07-28 11:11:00,
2013-07-28 07:16:00,76.5,69.5,30.06,SE,135,0.0,0.0,79,0.00,,---,0.00,VWS V14.01,2013-07-28 11:16:00,
2013-07-28 07:22:00,76.5,69.8,30.09,SE,135,0.0,0.0,80,0.00,,---,0.00,VWS V14.01,2013-07-28 11:22:00,
2013-07-28 07:28:00,76.6,70.0,30.09,SE,135,0.0,0.0,80,0.00,,---,0.00,VWS V14.01,2013-07-28 11:28:00,
2013-07-28 07:34:00,76.8,70.2,30.09,SE,135,0.0,0.0,80,0.00,,---,0.00,VWS V14.01,2013-07-28 11:34:00,
2013-07-28 07:40:00,77.0,70.4,30.09,SE,135,0.0,0.0,80,0.00,,---,0.00,VWS V14.01,2013-07-28 11:40:00,
2013-07-28 07:46:00,77.2,70.5,30.09,SE,135,0.0,0.0,80,0.00,,---,0.00,VWS V14.01,2013-07-28 11:46:00,
2013-07-28 07:52:00,77.4,70.7,30.09,SE,135,0.0,0.0,80,0.00,,---,0.00,VWS V14.01,2013-07-28 11:52:00,
2013-07-28 07:57:00,77.7,71.4,30.09,SE,135,0.0,1.1,81,0.00,,---,0.00,VWS V14.01,2013-07-28 11:57:00,
2013-07-28 08:02:00,77.9,71.6,30.09,SE,135,1.3,1.3,81,0.00,,---,0.00,VWS V14.01,2013-07-28 12:02:00,
2013-07-28 08:08:00,78.3,72.0,30.09,SE,135,1.3,1.3,81,0.00,,---,0.00,VWS V14.01,2013-07-28 12:08:00,
2013-07-28 08:14:00,78.6,72.3,30.09,ESE,112,2.7,2.7,81,0.00,,---,0.00,VWS V14.01,2013-07-28 12:14:00,
2013-07-28 08:20:00,79.2,72.8,30.09,ESE,112,1.1,1.1,81,0.00,,---,0.00,VWS V14.01,2013-07-28 12:20:00,
2013-07-28 08:25:00,79.5,72.8,30.09,ESE,112,1.1,1.1,80,0.00,,---,0.00,VWS V14.01,2013-07-28 12:25:00,
2013-07-28 08:30:00,79.9,73.2,30.09,ESE,112,1.1,1.1,80,0.00,,---,0.00,VWS V14.01,2013-07-28 12:30:00,
2013-07-28 08:36:00,80.6,73.5,30.09,ESE,112,1.1,1.1,79,0.00,,---,0.00,VWS V14.01,2013-07-28 12:36:00,
2013-07-28 08:42:00,81.0,73.5,30.09,ESE,112,1.1,1.1,78,0.00,,---,0.00,VWS V14.01,2013-07-28 12:42:00,
2013-07-28 08:48:00,81.3,73.4,30.09,ESE,112,1.1,1.1,77,0.00,,---,0.00,VWS V14.01,2013-07-28 12:48:00,
2013-07-28 08:53:00,81.7,73.8,30.09,ESE,112,1.1,1.1,77,0.00,,---,0.00,VWS V14.01,2013-07-28 12:53:00,
2013-07-28 08:58:00,82.0,73.7,30.09,ESE,112,1.1,1.1,76,0.00,,---,0.00,VWS V14.01,2013-07-28 12:58:00,
2013-07-28 09:03:00,82.4,73.7,30.09,ESE,112,1.1,1.1,75,0.00,,---,0.00,VWS V14.01,2013-07-28 13:03:00,
2013-07-28 09:09:00,82.6,73.1,30.09,ESE,112,1.1,1.1,73,0.00,,---,0.50,VWS V14.01,2013-07-28 13:09:00,
2013-07-28 09:14:00,82.8,72.8,30.09,ESE,112,1.1,1.1,72,0.00,,---,0.00,VWS V14.01,2013-07-28 13:14:00,
2013-07-28 09:19:00,83.1,72.8,30.09,ESE,112,1.1,1.1,71,0.00,,---,0.00,VWS V14.01,2013-07-28 13:19:00,
2013-07-28 09:25:00,83.7,73.3,30.09,ESE,112,1.1,1.1,71,0.00,,---,0.00,VWS V14.01,2013-07-28 13:25:00,
2013-07-28 09:31:00,84.2,72.9,30.09,West,270,2.7,2.7,69,0.00,,---,0.00,VWS V14.01,2013-07-28 13:31:00,
2013-07-28 09:36:00,84.6,72.8,30.09,SSE,158,1.3,1.3,68,0.00,,---,0.00,VWS V14.01,2013-07-28 13:36:00,
2013-07-28 09:41:00,84.6,72.4,30.09,WSW,248,1.6,2.9,67,0.00,,---,0.00,VWS V14.01,2013-07-28 13:41:00,
2013-07-28 09:47:00,84.4,72.2,30.09,SW,225,2.7,2.7,67,0.00,,---,0.00,VWS V14.01,2013-07-28 13:47:00,
2013-07-28 09:52:00,84.2,71.2,30.09,WSW,248,1.6,1.6,65,0.00,,---,0.00,VWS V14.01,2013-07-28 13:52:00,
2013-07-28 09:59:00,84.2,71.2,30.09,SSW,202,2.2,2.2,65,0.00,,---,0.00,VWS V14.01,2013-07-28 13:59:00,
2013-07-28 10:05:00,84.0,71.0,30.09,SSW,202,0.0,0.0,65,0.00,,---,0.00,VWS V14.01,2013-07-28 14:05:00,
2013-07-28 10:10:00,84.6,71.5,30.09,SE,135,1.3,1.3,65,0.00,,---,0.00,VWS V14.01,2013-07-28 14:10:00,
2013-07-28 10:15:00,85.1,72.0,30.09,ESE,112,0.9,0.9,65,0.00,,---,0.00,VWS V14.01,2013-07-28 14:15:00,
2013-07-28 10:21:00,85.8,72.2,30.09,SSW,202,1.6,4.0,64,0.00,,---,0.00,VWS V14.01,2013-07-28 14:21:00,
2013-07-28 10:27:00,86.0,70.5,30.09,SSE,158,2.5,4.3,60,0.00,,---,0.00,VWS V14.01,2013-07-28 14:27:00,
2013-07-28 10:33:00,85.8,70.3,30.09,SSW,202,4.3,5.4,60,0.00,,---,0.00,VWS V14.01,2013-07-28 14:33:00,
2013-07-28 10:38:00,86.0,69.5,30.09,SSE,158,1.6,2.0,58,0.00,,---,0.00,VWS V14.01,2013-07-28 14:38:00,
2013-07-28 10:43:00,86.5,70.0,30.09,SW,225,1.6,3.4,58,0.00,,---,0.00,VWS V14.01,2013-07-28 14:43:00,
2013-07-28 10:49:00,86.7,69.7,30.09,SSW,202,2.5,3.6,57,0.00,,---,0.00,VWS V14.01,2013-07-28 14:49:00,
2013-07-28 10:55:00,86.7,69.2,30.09,South,180,2.5,2.5,56,0.00,,---,0.00,VWS V14.01,2013-07-28 14:55:00,
2013-07-28 11:01:00,86.7,68.6,30.09,NE,45,0.0,0.0,55,0.00,,---,0.00,VWS V14.01,2013-07-28 15:01:00,
2013-07-28 11:06:00,86.9,69.3,30.09,SSW,202,1.1,3.1,56,0.00,,---,0.00,VWS V14.01,2013-07-28 15:06:00,
2013-07-28 11:11:00,87.1,68.4,30.09,West,270,2.5,2.5,54,0.00,,---,0.00,VWS V14.01,2013-07-28 15:11:00,
2013-07-28 11:17:00,87.3,68.6,30.09,South,180,1.6,1.6,54,0.00,,---,0.00,VWS V14.01,2013-07-28 15:17:00,
2013-07-28 11:23:00,87.6,68.9,30.09,WNW,292,3.1,3.1,54,0.00,,---,0.00,VWS V14.01,2013-07-28 15:23:00,
2013-07-28 11:29:00,87.8,68.6,30.09,SSW,202,2.0,2.0,53,0.00,,---,0.00,VWS V14.01,2013-07-28 15:29:00,
2013-07-28 11:34:00,87.8,68.0,30.09,SSW,202,2.2,2.7,52,0.00,,---,0.00,VWS V14.01,2013-07-28 15:34:00,
2013-07-28 11:39:00,87.8,68.0,30.09,WSW,248,1.1,2.7,52,0.00,,---,0.00,VWS V14.01,2013-07-28 15:39:00,
2013-07-28 11:44:00,88.0,67.6,30.09,SW,225,2.2,3.1,51,0.00,,---,0.00,VWS V14.01,2013-07-28 15:44:00,
2013-07-28 11:50:00,88.2,67.8,30.12,NNW,338,3.6,5.4,51,0.00,,---,0.00,VWS V14.01,2013-07-28 15:50:00,
2013-07-28 11:55:00,88.3,68.5,30.12,NNW,338,0.0,2.0,52,0.00,,---,0.00,VWS V14.01,2013-07-28 15:55:00,
2013-07-28 12:00:00,88.5,68.1,30.12,NW,315,2.2,2.2,51,0.00,,---,0.00,VWS V14.01,2013-07-28 16:00:00,
2013-07-28 12:05:00,88.7,68.3,30.12,SSW,202,1.3,2.9,51,0.00,,---,0.00,VWS V14.01,2013-07-28 16:05:00,
2013-07-28 12:10:00,89.1,68.6,30.12,SW,225,3.8,3.8,51,0.00,,---,0.00,VWS V14.01,2013-07-28 16:10:00,
2013-07-28 12:16:00,89.6,67.9,30.12,SSE,158,0.0,3.8,49,0.00,,---,0.00,VWS V14.01,2013-07-28 16:16:00,
2013-07-28 12:22:00,90.1,68.4,30.12,WSW,248,4.3,4.3,49,0.00,,---,0.00,VWS V14.01,2013-07-28 16:22:00,
2013-07-28 12:28:00,91.4,68.3,30.12,SSW,202,3.8,3.8,47,0.00,,---,0.00,VWS V14.01,2013-07-28 16:28:00,
2013-07-28 12:33:00,91.8,67.4,30.12,SSW,202,2.5,2.5,45,0.00,,---,0.00,VWS V14.01,2013-07-28 16:33:00,
2013-07-28 12:38:00,91.9,67.6,30.09,South,180,4.9,4.9,45,0.00,,---,0.00,VWS V14.01,2013-07-28 16:38:00,
2013-07-28 12:44:00,92.3,66.6,30.09,NNE,22,3.8,4.0,43,0.00,,---,0.00,VWS V14.01,2013-07-28 16:44:00,
2013-07-28 12:50:00,92.3,65.9,30.09,WSW,248,2.9,5.4,42,0.00,,---,0.00,VWS V14.01,2013-07-28 16:50:00,
2013-07-28 12:55:00,92.3,65.9,30.09,West,270,2.5,2.5,42,0.00,,---,0.00,VWS V14.01,2013-07-28 16:55:00,
2013-07-28 13:00:00,92.7,66.2,30.09,WNW,292,4.0,4.0,42,0.00,,---,0.00,VWS V14.01,2013-07-28 17:00:00,
2013-07-28 13:06:00,92.7,65.5,30.12,West,270,3.6,5.8,41,0.00,,---,0.00,VWS V14.01,2013-07-28 17:06:00,
2013-07-28 13:11:00,92.7,65.5,30.12,NNW,338,3.6,3.6,41,0.00,,---,0.00,VWS V14.01,2013-07-28 17:11:00,
2013-07-28 13:16:00,92.8,65.7,30.12,West,270,7.4,7.4,41,0.00,,---,0.00,VWS V14.01,2013-07-28 17:16:00,
2013-07-28 13:22:00,93.0,65.2,30.12,SE,135,2.2,3.6,40,0.00,,---,0.00,VWS V14.01,2013-07-28 17:22:00,
2013-07-28 13:28:00,93.2,65.3,30.12,West,270,2.5,2.7,40,0.00,,---,0.00,VWS V14.01,2013-07-28 17:28:00,
2013-07-28 13:33:00,92.8,65.7,30.12,SSW,202,4.5,4.5,41,0.00,,---,0.00,VWS V14.01,2013-07-28 17:33:00,
2013-07-28 13:38:00,93.2,66.0,30.12,SSW,202,1.6,2.5,41,0.00,,---,0.00,VWS V14.01,2013-07-28 17:38:00,
2013-07-28 13:44:00,93.0,65.9,30.12,WSW,248,4.0,4.0,41,0.00,,---,0.00,VWS V14.01,2013-07-28 17:44:00,
2013-07-28 13:50:00,93.4,65.5,30.09,NW,315,4.9,4.9,40,0.00,,---,0.00,VWS V14.01,2013-07-28 17:50:00,
2013-07-28 13:55:00,93.6,65.6,30.09,NNW,338,2.9,2.9,40,0.00,,---,0.00,VWS V14.01,2013-07-28 17:55:00,
2013-07-28 14:00:00,93.7,65.8,30.09,NW,315,2.0,2.5,40,0.00,,---,0.00,VWS V14.01,2013-07-28 18:00:00,
2013-07-28 14:05:00,93.6,65.6,30.09,SSW,202,5.6,5.6,40,0.00,,---,0.00,VWS V14.01,2013-07-28 18:05:00,
2013-07-28 14:11:00,93.4,65.5,30.09,SSW,202,3.8,3.8,40,0.00,,---,0.00,VWS V14.01,2013-07-28 18:11:00,
2013-07-28 14:17:00,93.0,65.2,30.09,SW,225,3.4,3.4,40,0.00,,---,0.00,VWS V14.01,2013-07-28 18:17:00,
2013-07-28 14:22:00,92.8,65.7,30.09,West,270,3.4,3.6,41,0.00,,---,0.00,VWS V14.01,2013-07-28 18:22:00,
2013-07-28 14:27:00,92.7,65.5,30.09,NE,45,3.4,3.4,41,0.00,,---,0.00,VWS V14.01,2013-07-28 18:27:00,
2013-07-28 14:32:00,92.5,65.4,30.09,NW,315,2.9,6.5,41,0.00,,---,0.00,VWS V14.01,2013-07-28 18:32:00,
2013-07-28 14:37:00,92.8,65.7,30.09,SW,225,4.7,4.7,41,0.00,,---,0.00,VWS V14.01,2013-07-28 18:37:00,
2013-07-28 14:43:00,93.0,65.9,30.09,SSW,202,2.7,5.8,41,0.00,,---,0.00,VWS V14.01,2013-07-28 18:43:00,
2013-07-28 14:48:00,93.2,65.3,30.09,NNW,338,3.8,3.8,40,0.00,,---,0.00,VWS V14.01,2013-07-28 18:48:00,
2013-07-28 14:53:00,93.4,65.5,30.09,West,270,2.7,2.7,40,0.00,,---,0.00,VWS V14.01,2013-07-28 18:53:00,
2013-07-28 14:59:00,93.4,65.5,30.09,West,270,3.6,3.6,40,0.00,,---,0.00,VWS V14.01,2013-07-28 18:59:00,
2013-07-28 15:05:00,92.8,65.0,30.09,South,180,3.6,5.8,40,0.00,,---,0.00,VWS V14.01,2013-07-28 19:05:00,
2013-07-28 15:10:00,92.5,64.7,30.09,WNW,292,3.1,4.3,40,0.00,,---,0.00,VWS V14.01,2013-07-28 19:10:00,
2013-07-28 15:15:00,92.3,65.2,30.09,South,180,3.4,4.0,41,0.00,,---,0.00,VWS V14.01,2013-07-28 19:15:00,
2013-07-28 15:21:00,92.5,64.7,30.12,South,180,5.4,5.4,40,0.00,,---,0.00,VWS V14.01,2013-07-28 19:21:00,
2013-07-28 15:26:00,92.3,65.2,30.12,SSE,158,2.7,5.4,41,0.00,,---,0.00,VWS V14.01,2013-07-28 19:26:00,
2013-07-28 15:31:00,91.8,64.7,30.12,SSW,202,4.9,4.9,41,0.00,,---,0.00,VWS V14.01,2013-07-28 19:31:00,
2013-07-28 15:37:00,91.4,64.4,30.09,South,180,6.5,7.2,41,0.00,,---,0.00,VWS V14.01,2013-07-28 19:37:00,
2013-07-28 15:42:00,91.0,64.8,30.09,SW,225,4.7,4.7,42,0.00,,---,0.00,VWS V14.01,2013-07-28 19:42:00,
2013-07-28 15:47:00,91.4,65.8,30.09,South,180,2.9,2.9,43,0.00,,---,0.00,VWS V14.01,2013-07-28 19:47:00,
2013-07-28 15:53:00,91.4,65.1,30.09,SSW,202,2.7,2.7,42,0.00,,---,0.00,VWS V14.01,2013-07-28 19:53:00,
2013-07-28 15:59:00,91.8,65.4,30.09,SSE,158,2.5,2.5,42,0.00,,---,0.00,VWS V14.01,2013-07-28 19:59:00,
2013-07-28 16:04:00,91.8,65.4,30.09,South,180,3.6,4.3,42,0.00,,---,0.00,VWS V14.01,2013-07-28 20:04:00,
2013-07-28 16:10:00,92.3,65.9,30.09,West,270,4.0,4.0,42,0.00,,---,0.00,VWS V14.01,2013-07-28 20:10:00,
2013-07-28 16:15:00,92.5,64.7,30.09,SSW,202,2.5,3.8,40,0.00,,---,0.00,VWS V14.01,2013-07-28 20:15:00,
2013-07-28 16:20:00,92.8,65.0,30.09,SSW,202,2.2,2.2,40,0.00,,---,0.00,VWS V14.01,2013-07-28 20:20:00,
2013-07-28 16:25:00,92.7,63.4,30.09,SSE,158,0.0,0.0,38,0.00,,---,0.00,VWS V14.01,2013-07-28 20:25:00,
2013-07-28 16:30:00,93.0,63.7,30.09,NE,45,3.6,3.6,38,0.00,,---,0.00,VWS V14.01,2013-07-28 20:30:00,
2013-07-28 16:35:00,92.5,63.2,30.09,SE,135,4.0,4.0,38,0.00,,---,0.00,VWS V14.01,2013-07-28 20:35:00,
2013-07-28 16:41:00,91.2,62.1,30.09,WNW,292,3.4,6.5,38,0.00,,---,0.00,VWS V14.01,2013-07-28 20:41:00,
2013-07-28 16:46:00,90.0,61.7,30.09,East,90,2.7,2.7,39,0.00,,---,0.00,VWS V14.01,2013-07-28 20:46:00,
2013-07-28 16:52:00,89.2,61.8,30.09,NNW,338,3.4,3.4,40,0.00,,---,0.00,VWS V14.01,2013-07-28 20:52:00,
2013-07-28 16:58:00,89.1,62.3,30.09,NW,315,2.5,2.7,41,0.00,,---,0.00,VWS V14.01,2013-07-28 20:58:00,
2013-07-28 17:03:00,88.7,62.0,30.09,NNE,22,1.1,3.8,41,0.00,,---,0.00,VWS V14.01,2013-07-28 21:03:00,
2013-07-28 17:08:00,88.3,62.4,30.12,ENE,68,2.2,2.2,42,0.00,,---,0.00,VWS V14.01,2013-07-28 21:08:00,
2013-07-28 17:13:00,88.2,62.9,30.12,East,90,4.0,4.0,43,0.00,,---,0.00,VWS V14.01,2013-07-28 21:13:00,
2013-07-28 17:18:00,88.0,62.7,30.12,North,0,2.0,2.0,43,0.00,,---,0.00,VWS V14.01,2013-07-28 21:18:00,
2013-07-28 17:24:00,87.8,62.5,30.09,NNW,338,2.0,2.0,43,0.00,,---,0.00,VWS V14.01,2013-07-28 21:24:00,
2013-07-28 17:29:00,87.8,62.5,30.09,SE,135,0.0,0.0,43,0.00,,---,0.00,VWS V14.01,2013-07-28 21:29:00,
2013-07-28 17:34:00,87.8,63.2,30.09,East,90,2.5,2.7,44,0.00,,---,0.00,VWS V14.01,2013-07-28 21:34:00,
2013-07-28 17:40:00,87.8,63.8,30.09,NNW,338,1.1,1.3,45,0.00,,---,0.00,VWS V14.01,2013-07-28 21:40:00,
2013-07-28 17:45:00,87.8,63.8,30.09,WNW,292,2.9,2.9,45,0.00,,---,0.00,VWS V14.01,2013-07-28 21:45:00,
2013-07-28 17:50:00,87.8,63.8,30.09,NW,315,1.6,1.6,45,0.00,,---,0.00,VWS V14.01,2013-07-28 21:50:00,
2013-07-28 17:55:00,87.8,63.8,30.09,East,90,2.0,2.7,45,0.00,,---,0.00,VWS V14.01,2013-07-28 21:55:00,
2013-07-28 18:00:00,87.6,63.0,30.09,SE,135,0.0,0.0,44,0.00,,---,0.00,VWS V14.01,2013-07-28 22:00:00,
2013-07-28 18:06:00,87.6,63.0,30.09,West,270,1.1,1.1,44,0.00,,---,0.00,VWS V14.01,2013-07-28 22:06:00,
2013-07-28 18:12:00,87.8,63.2,30.09,South,180,1.6,1.6,44,0.00,,---,0.00,VWS V14.01,2013-07-28 22:12:00,
2013-07-28 18:17:00,88.2,64.2,30.09,NNW,338,3.4,3.4,45,0.00,,---,0.00,VWS V14.01,2013-07-28 22:17:00,
2013-07-28 18:22:00,88.7,64.7,30.09,NE,45,1.3,1.3,45,0.00,,---,0.00,VWS V14.01,2013-07-28 22:22:00,
2013-07-28 18:28:00,89.1,64.3,30.09,SW,225,0.0,1.6,44,0.00,,---,0.00,VWS V14.01,2013-07-28 22:28:00,
2013-07-28 18:34:00,89.6,64.8,30.09,NW,315,2.2,2.2,44,0.00,,---,0.00,VWS V14.01,2013-07-28 22:34:00,
2013-07-28 18:39:00,90.1,64.7,30.09,NNE,22,0.0,1.6,43,0.00,,---,0.00,VWS V14.01,2013-07-28 22:39:00,
2013-07-28 18:44:00,90.0,63.8,30.09,NNE,22,1.1,1.3,42,0.00,,---,0.00,VWS V14.01,2013-07-28 22:44:00,
2013-07-28 18:51:00,90.0,63.8,30.09,SW,225,1.3,1.6,42,0.00,,---,0.00,VWS V14.01,2013-07-28 22:51:00,
2013-07-28 18:56:00,90.1,64.0,30.09,West,270,2.7,2.7,42,0.00,,---,0.00,VWS V14.01,2013-07-28 22:56:00,
2013-07-28 19:02:00,90.1,63.3,30.09,South,180,1.6,2.7,41,0.00,,---,0.00,VWS V14.01,2013-07-28 23:02:00,
2013-07-28 19:08:00,89.8,63.0,30.09,West,270,4.0,4.0,41,0.00,,---,0.00,VWS V14.01,2013-07-28 23:08:00,
2013-07-28 19:13:00,89.8,63.0,30.09,North,0,3.8,3.8,41,0.00,,---,0.00,VWS V14.01,2013-07-28 23:13:00,
2013-07-28 19:19:00,89.4,62.6,30.09,SSW,202,0.0,2.9,41,0.00,,---,0.00,VWS V14.01,2013-07-28 23:19:00,
2013-07-28 19:25:00,88.9,62.2,30.09,North,0,1.1,2.5,41,0.00,,---,0.00,VWS V14.01,2013-07-28 23:25:00,
2013-07-28 19:30:00,88.5,61.8,30.09,West,270,3.6,3.6,41,0.00,,---,0.00,VWS V14.01,2013-07-28 23:30:00,
2013-07-28 19:35:00,88.2,61.5,30.09,SW,225,1.1,3.6,41,0.00,,---,0.00,VWS V14.01,2013-07-28 23:35:00,
2013-07-28 19:40:00,87.8,61.2,30.09,WSW,248,0.0,0.9,41,0.00,,---,0.00,VWS V14.01,2013-07-28 23:40:00,
2013-07-28 19:45:00,87.4,61.5,30.09,WSW,248,0.0,0.0,42,0.00,,---,0.00,VWS V14.01,2013-07-28 23:45:00,
2013-07-28 19:51:00,87.1,61.9,30.12,West,270,0.0,3.1,43,0.00,,---,0.00,VWS V14.01,2013-07-28 23:51:00,
2013-07-28 19:57:00,86.9,61.7,30.12,West,270,2.9,2.9,43,0.00,,---,0.00,VWS V14.01,2013-07-28 23:57:00,
2013-07-28 20:02:00,86.5,61.4,30.12,SE,135,0.0,1.6,43,0.00,,---,0.00,VWS V14.01,2013-07-29 00:02:00,
2013-07-28 20:07:00,86.4,61.9,30.09,ESE,112,1.1,1.1,44,0.00,,---,0.00,VWS V14.01,2013-07-29 00:07:00,
2013-07-28 20:13:00,86.0,61.6,30.09,ESE,112,1.1,1.1,44,0.00,,---,0.00,VWS V14.01,2013-07-29 00:13:00,
2013-07-28 20:19:00,85.8,62.7,30.09,ESE,112,1.1,1.1,46,0.00,,---,0.00,VWS V14.01,2013-07-29 00:19:00,
2013-07-28 20:25:00,85.5,63.0,30.12,SE,135,0.0,0.0,47,0.00,,---,0.00,VWS V14.01,2013-07-29 00:25:00,
2013-07-28 20:31:00,85.3,63.4,30.12,South,180,0.0,0.0,48,0.00,,---,0.00,VWS V14.01,2013-07-29 00:31:00,
2013-07-28 20:36:00,85.1,63.2,30.12,East,90,0.0,0.0,48,0.00,,---,0.00,VWS V14.01,2013-07-29 00:36:00,
2013-07-28 20:41:00,84.7,63.5,30.12,SE,135,0.0,0.0,49,0.00,,---,0.00,VWS V14.01,2013-07-29 00:41:00,
2013-07-28 20:47:00,84.6,64.5,30.12,SE,135,0.0,0.0,51,0.00,,---,0.00,VWS V14.01,2013-07-29 00:47:00,
2013-07-28 20:52:00,84.6,64.5,30.12,SE,135,0.0,0.0,51,0.00,,---,0.00,VWS V14.01,2013-07-29 00:52:00,
2013-07-28 20:57:00,84.4,64.8,30.12,SE,135,0.0,0.0,52,0.00,,---,0.00,VWS V14.01,2013-07-29 00:57:00,
2013-07-28 21:02:00,84.4,65.4,30.12,SSW,202,0.0,0.0,53,0.00,,---,0.00,VWS V14.01,2013-07-29 01:02:00,
2013-07-28 21:08:00,84.2,65.8,30.12,SSW,202,1.3,1.3,54,0.00,,---,0.00,VWS V14.01,2013-07-29 01:08:00,
2013-07-28 21:13:00,84.2,65.2,30.12,SSE,158,0.0,0.0,53,0.00,,---,0.00,VWS V14.01,2013-07-29 01:13:00,
2013-07-28 21:19:00,84.0,65.1,30.12,SSW,202,0.0,0.0,53,0.00,,---,0.00,VWS V14.01,2013-07-29 01:19:00,
2013-07-28 21:25:00,84.0,65.1,30.12,SW,225,0.0,0.0,53,0.00,,---,0.00,VWS V14.01,2013-07-29 01:25:00,
2013-07-28 21:30:00,83.8,64.9,30.12,SW,225,0.0,0.0,53,0.00,,---,0.00,VWS V14.01,2013-07-29 01:30:00,
2013-07-28 21:35:00,83.7,64.7,30.12,West,270,0.0,0.0,53,0.00,,---,0.00,VWS V14.01,2013-07-29 01:35:00,
2013-07-28 21:41:00,83.7,64.7,30.12,South,180,0.0,0.0,53,0.00,,---,0.00,VWS V14.01,2013-07-29 01:41:00,
2013-07-28 21:46:00,83.5,65.1,30.12,SE,135,0.0,0.0,54,0.00,,---,0.00,VWS V14.01,2013-07-29 01:46:00,
2013-07-28 21:52:00,83.3,65.5,30.12,North,0,0.0,0.0,55,0.00,,---,0.00,VWS V14.01,2013-07-29 01:52:00,
2013-07-28 21:57:00,83.1,65.3,30.12,North,0,0.0,1.1,55,0.00,,---,0.00,VWS V14.01,2013-07-29 01:57:00,
2013-07-28 22:02:00,82.9,65.1,30.12,ENE,68,0.0,0.0,55,0.00,,---,0.00,VWS V14.01,2013-07-29 02:02:00,
2013-07-28 22:08:00,82.8,65.5,30.15,NNW,338,0.0,0.0,56,0.00,,---,0.00,VWS V14.01,2013-07-29 02:08:00,
2013-07-28 22:14:00,82.6,65.8,30.15,ESE,112,0.0,0.0,57,0.00,,---,0.00,VWS V14.01,2013-07-29 02:14:00,
2013-07-28 22:20:00,82.6,66.3,30.15,East,90,0.0,2.2,58,0.00,,---,0.00,VWS V14.01,2013-07-29 02:20:00,
2013-07-28 22:25:00,82.4,66.7,30.15,North,0,0.0,0.0,59,0.00,,---,0.00,VWS V14.01,2013-07-29 02:25:00,
2013-07-28 22:30:00,82.2,67.0,30.15,ENE,68,0.0,0.0,60,0.00,,---,0.00,VWS V14.01,2013-07-29 02:30:00,
2013-07-28 22:36:00,81.9,67.1,30.15,ESE,112,0.0,0.0,61,0.00,,---,0.00,VWS V14.01,2013-07-29 02:36:00,
2013-07-28 22:42:00,81.9,67.1,30.15,ESE,112,0.0,0.0,61,0.00,,---,0.00,VWS V14.01,2013-07-29 02:42:00,
2013-07-28 22:48:00,81.7,67.4,30.15,ESE,112,0.0,0.0,62,0.00,,---,0.00,VWS V14.01,2013-07-29 02:48:00,
2013-07-28 22:54:00,81.3,67.1,30.15,SE,135,0.0,0.0,62,0.00,,---,0.00,VWS V14.01,2013-07-29 02:54:00,
2013-07-28 23:00:00,81.1,66.9,30.15,SE,135,1.6,1.6,62,0.00,,---,0.00,VWS V14.01,2013-07-29 03:00:00,
2013-07-28 23:06:00,81.1,67.4,30.15,East,90,0.9,1.3,63,0.00,,---,0.00,VWS V14.01,2013-07-29 03:06:00,
2013-07-28 23:11:00,81.1,67.4,30.15,SE,135,1.3,2.0,63,0.00,,---,0.00,VWS V14.01,2013-07-29 03:11:00,
2013-07-28 23:17:00,81.0,67.2,30.15,East,90,1.6,3.4,63,0.00,,---,0.00,VWS V14.01,2013-07-29 03:17:00,
2013-07-28 23:22:00,81.0,67.7,30.15,ESE,112,2.0,2.0,64,0.00,,---,0.00,VWS V14.01,2013-07-29 03:22:00,
2013-07-28 23:28:00,80.8,67.5,30.15,East,90,1.3,2.7,64,0.00,,---,0.00,VWS V14.01,2013-07-29 03:28:00,
2013-07-28 23:34:00,80.6,67.8,30.15,East,90,1.1,1.6,65,0.00,,---,0.00,VWS V14.01,2013-07-29 03:34:00,
2013-07-28 23:39:00,80.4,67.6,30.15,SSE,158,0.0,0.0,65,0.00,,---,0.00,VWS V14.01,2013-07-29 03:39:00,
2013-07-28 23:45:00,80.2,67.9,30.15,ENE,68,1.1,2.7,66,0.00,,---,0.00,VWS V14.01,2013-07-29 03:45:00,
2013-07-28 23:50:00,80.2,67.9,30.15,ENE,68,1.3,1.3,66,0.00,,---,0.00,VWS V14.01,2013-07-29 03:50:00,
2013-07-28 23:55:00,80.1,67.7,30.15,ESE,112,2.0,2.0,66,0.00,,---,0.00,VWS V14.01,2013-07-29 03:55:00,